TimeMST,TemperatureF,Dew PointF,Humidity,Sea Level PressureIn,VisibilityMPH,Wind Direction,Wind SpeedMPH,Gust SpeedMPH,PrecipitationIn,Events,Conditions,WindDirDegrees,DateUTC
12:52 AM,9.0,3.9,80,30.23,10.0,Calm,Calm,-,N/A,,Clear,0,2013-02-17 07:52:00
1:52 AM,9.0,3.9,80,30.23,10.0,Calm,Calm,-,N/A,,Clear,0,2013-02-17 08:52:00
2:52 AM,5.0,1.0,84,30.20,10.0,Calm,Calm,-,N/A,,Clear,0,2013-02-17 09:52:00
3:52 AM,3.9,-0.0,84,30.19,10.0,South,3.5,-,N/A,,Clear,190,2013-02-17 10:52:00
4:52 AM,3.9,-0.9,80,30.18,10.0,Calm,Calm,-,N/A,,Clear,0,2013-02-17 11:52:00
5:52 AM,5.0,-0.0,80,30.17,10.0,SSW,5.8,-,N/A,,Clear,200,2013-02-17 12:52:00
6:52 AM,6.8,1.4,79,30.06,10.0,Calm,Calm,-,N/A,,Clear,0,2013-02-17 13:52:00
7:52 AM,12.0,5.0,73,30.19,10.0,Calm,Calm,-,N/A,,Clear,0,2013-02-17 14:52:00
8:52 AM,18.0,8.1,65,30.17,10.0,Variable,3.5,-,N/A,,Clear,0,2013-02-17 15:52:00
9:52 AM,25.0,9.0,51,30.12,10.0,Calm,Calm,-,N/A,,Clear,0,2013-02-17 16:52:00
10:52 AM,28.0,10.9,49,30.07,10.0,Variable,3.5,-,N/A,,Clear,0,2013-02-17 17:52:00
11:52 AM,36.0,10.9,36,29.99,10.0,NW,6.9,-,N/A,,Clear,310,2013-02-17 18:52:00
12:52 PM,39.0,10.0,30,29.91,10.0,WSW,3.5,-,N/A,,Clear,250,2013-02-17 19:52:00
1:52 PM,39.9,12.0,32,29.85,10.0,WNW,5.8,-,N/A,,Clear,290,2013-02-17 20:52:00
2:52 PM,46.9,8.1,21,29.80,10.0,SW,8.1,-,N/A,,Clear,230,2013-02-17 21:52:00
3:39 PM,48.2,-2.2,12,29.73,2.5,SW,27.6,33.4,N/A,,Haze,230,2013-02-17 22:39:00
3:52 PM,48.0,-4.0,11,29.77,2.5,SW,28.8,35.7,N/A,,Haze,230,2013-02-17 22:52:00
4:03 PM,46.4,-4.0,12,29.73,4.0,WSW,26.5,34.5,N/A,,Haze,240,2013-02-17 23:03:00
4:52 PM,44.1,-0.0,16,29.79,10.0,SW,23.0,28.8,N/A,,Clear,230,2013-02-17 23:52:00
5:52 PM,39.0,3.9,23,29.79,10.0,SW,15.0,29.9,N/A,,Clear,230,2013-02-18 00:52:00
6:52 PM,35.1,5.0,28,29.81,10.0,WSW,15.0,-,N/A,,Clear,250,2013-02-18 01:52:00
7:52 PM,36.0,1.9,24,29.79,10.0,West,15.0,-,N/A,,Clear,260,2013-02-18 02:52:00
8:52 PM,33.1,5.0,31,29.77,10.0,West,10.4,-,N/A,,Clear,280,2013-02-18 03:52:00
10:52 PM,27.0,10.0,49,29.75,10.0,West,8.1,-,N/A,,Clear,270,2013-02-18 05:52:00
11:52 PM,24.1,10.0,55,29.73,10.0,NNW,5.8,-,N/A,,Clear,340,2013-02-18 06:52:00